TimeCDT,TemperatureF,Dew PointF,Humidity,Sea Level PressureIn,VisibilityMPH,Wind Direction,Wind SpeedMPH,Gust SpeedMPH,PrecipitationIn,Events,Conditions,WindDirDegrees,DateUTC
12:53 AM,72.0,68.0,87,30.14,10.0,NE,4.6,-,N/A,,Clear,50,2013-05-25 05:53:00
1:53 AM,71.1,64.9,81,30.14,10.0,ENE,6.9,-,N/A,,Clear,70,2013-05-25 06:53:00
2:53 AM,70.0,64.0,81,30.14,10.0,ENE,5.8,-,N/A,,Clear,70,2013-05-25 07:53:00
3:53 AM,69.1,63.0,81,30.15,10.0,ENE,5.8,-,N/A,,Clear,70,2013-05-25 08:53:00
4:53 AM,66.9,61.0,81,30.17,10.0,ENE,5.8,-,N/A,,Clear,70,2013-05-25 09:53:00
5:53 AM,66.9,60.1,79,30.18,10.0,ENE,6.9,-,N/A,,Partly Cloudy,60,2013-05-25 10:53:00
6:53 AM,66.9,57.9,73,30.20,10.0,ENE,5.8,-,N/A,,Clear,60,2013-05-25 11:53:00
7:53 AM,69.1,55.9,63,30.22,10.0,ENE,9.2,-,N/A,,Clear,70,2013-05-25 12:53:00
8:53 AM,73.0,55.9,55,30.22,10.0,East,11.5,-,N/A,,Clear,80,2013-05-25 13:53:00
9:53 AM,75.9,57.0,52,30.23,10.0,East,8.1,-,N/A,,Clear,80,2013-05-25 14:53:00
10:53 AM,78.1,55.9,46,30.22,10.0,ENE,11.5,-,N/A,,Clear,70,2013-05-25 15:53:00
11:53 AM,81.0,59.0,47,30.22,10.0,East,11.5,-,N/A,,Clear,90,2013-05-25 16:53:00
12:53 PM,82.0,60.1,47,30.21,10.0,Variable,4.6,-,N/A,,Clear,0,2013-05-25 17:53:00
1:53 PM,84.0,62.1,47,30.19,10.0,East,4.6,-,N/A,,Clear,80,2013-05-25 18:53:00
2:53 PM,84.9,63.0,48,30.17,10.0,Variable,3.5,-,N/A,,Clear,0,2013-05-25 19:53:00
3:53 PM,84.9,63.0,48,30.15,10.0,ESE,3.5,-,N/A,,Clear,110,2013-05-25 20:53:00
4:53 PM,84.9,63.0,48,30.14,10.0,ENE,4.6,-,N/A,,Scattered Clouds,70,2013-05-25 21:53:00
5:53 PM,82.9,64.0,53,30.13,10.0,ENE,6.9,-,N/A,,Clear,70,2013-05-25 22:53:00
6:53 PM,80.1,64.9,60,30.12,10.0,ESE,8.1,-,N/A,,Clear,110,2013-05-25 23:53:00
7:53 PM,78.1,66.0,66,30.13,10.0,ESE,3.5,-,N/A,,Clear,110,2013-05-26 00:53:00
8:53 PM,75.0,66.9,76,30.14,10.0,Calm,Calm,-,N/A,,Partly Cloudy,0,2013-05-26 01:53:00
9:53 PM,73.0,66.9,81,30.15,10.0,ENE,3.5,-,N/A,,Clear,70,2013-05-26 02:53:00
10:53 PM,72.0,66.9,84,30.16,10.0,East,5.8,-,N/A,,Clear,90,2013-05-26 03:53:00
11:53 PM,71.1,66.9,87,30.15,10.0,East,4.6,-,N/A,,Clear,100,2013-05-26 04:53:00